Regional Weather Roundup
Issued by NWS Goodland, KS

Home | Current Version | Previous Version | Graphics & Text | Print | Product List | Glossary On
Versions: 1 2 3 4 5 6 7 8 9 10 11 12 13 14 15 16 17 18 19 20 21 22 23 24 25 26 27 28 29 30 31 32 33 34 35 36 37 38 39 40 41 42 43 44 45 46 47 48 49 50
000
ASUS43 KGLD 060808
RWRGLD

GOODLAND FORECAST AREA HOURLY WEATHER ROUNDUP
NATIONAL WEATHER SERVICE GOODLAND KS
100 AM MST FRI MAR 06 2015

...OFFICIAL OBSERVATIONS...

CITY           SKY/WX    TMP DP  RH WIND       PRES   REMARKS
GOODLAND KS    CLEAR     28  22  78 W12       30.26S WCI  18
HILL CITY KS   CLEAR     25  13  60 W7        30.27F
IMPERIAL NEB     N/A     27  16  63 W10       30.23F WCI  17
MCCOOK NEB     CLEAR     26  17  68 W10       30.25R WCI  16
AKRON CO       CLEAR     26  19  74 W12       30.23F WCI  16
BURLINGTON CO  CLEAR     24  19  81 W8        30.26F
LIMON CO       PTCLDY     6   2  83 N6        30.26F
$$

...UNOFFICIAL OBSERVATIONS...

CITY           SKY/WX    TMP DP  RH WIND       PRES   REMARKS
COLBY KS       CLEAR     30  25  80 W10       30.26S
GOVE KS          N/A     24  32 100 MISG        N/A
NORTON KS      CLEAR     28  16  59 SW10      30.24S WCI  19
SHARON SPRINGS   N/A     26  21  81 CALM        N/A
TRIBUNE KS     CLEAR     25  23  93 W6        30.29S
YUMA CO          N/A     23  17  77 SW6         N/A
$$



USA.gov is the U.S. government's official web portal to all federal, state and local government web resources and services.